Date String (YYYY-MM-DD hh:mm:ss) UTC,Instrument flags,Ambient pressure (hPa),Sample flow (lpm),Bypass flow (lpm),Sample temperature (°C),Ambient temperature (°C),ASC tube jacket temperature (°C),LED temperature (°C),Box temperature (°C),Sample RH (%),Span deviation,Mass concentration (μg/m³),Mass concentration (μg/m³),Mass concentration (μg/m³)
DateTimeUTC,F1_M11,P_M11,Q1_M11,Q2_M11,T1_M11,T2_M11,T3_M11,T4_M11,T5_M11,U1_M11,ZSPAN_M11,X0_M11,X2_M11,X1_M11
2022-07-04 03:00:00,,0825.4,5.01,0.00,29.5,28.6,00.0,38.2,31.5,24.0,0000.0,0003.22,0001.71,0001.24
2022-07-04 03:01:00,,0825.4,4.99,0.00,29.5,27.8,00.0,38.1,31.4,23.9,0000.0,0003.27,0001.74,0001.24
2022-07-04 03:02:00,,0825.4,5.00,0.00,29.5,27.0,00.0,38.1,31.2,24.0,0000.0,0003.40,0001.80,0001.26
2022-07-04 03:03:00,,0825.5,5.01,0.00,29.4,26.8,00.0,38.1,31.1,24.1,0000.0,0003.36,0001.78,0001.26
2022-07-04 03:04:00,,0825.4,4.99,0.00,29.3,26.8,00.0,38.1,31.0,24.3,0000.0,0003.45,0001.81,0001.25
2022-07-04 03:05:00,,0825.4,5.00,0.00,29.2,26.9,00.0,38.0,31.0,24.3,0000.0,0003.36,0001.81,0001.25
2022-07-04 03:06:00,,0825.4,5.00,0.00,29.2,27.1,00.0,38.0,31.0,24.3,0000.0,0003.27,0001.78,0001.25
2022-07-04 03:07:00,,0825.4,5.00,0.00,29.2,27.3,00.0,38.0,31.0,24.3,0000.0,0004.71,0001.76,0001.24
2022-07-04 03:08:00,,0825.4,5.00,0.00,29.2,27.5,00.0,38.0,31.1,24.3,0000.0,0004.77,0001.73,0001.24
2022-07-04 03:09:00,,0825.4,4.99,0.00,29.2,27.6,00.0,38.0,31.1,24.2,0000.0,0004.81,0001.75,0001.24
2022-07-04 03:10:00,,0825.5,5.00,0.00,29.2,27.8,00.0,38.0,31.2,24.3,0000.0,0004.48,0001.72,0001.24
2022-07-04 03:11:00,,0825.4,5.00,0.00,29.3,27.9,00.0,38.0,31.2,24.9,0000.0,0004.49,0001.77,0001.24
2022-07-04 03:12:00,,0825.5,5.00,0.00,29.3,28.0,00.0,38.0,31.2,24.7,0000.0,0004.64,0001.82,0001.24
2022-07-04 03:13:00,,0825.5,4.99,0.00,29.3,28.1,00.0,38.0,31.3,24.7,0000.0,0004.54,0001.78,0001.23
2022-07-04 03:14:00,,0825.5,5.00,0.00,29.3,28.2,00.0,38.1,31.3,24.5,0000.0,0004.48,0001.76,0001.23
2022-07-04 03:15:00,,0825.5,4.99,0.00,29.4,28.3,00.0,38.1,31.4,24.6,0000.0,0005.20,0001.74,0001.24
2022-07-04 03:16:00,,0825.5,5.00,0.00,29.4,28.4,00.0,38.1,31.4,24.6,0000.0,0005.71,0001.76,0001.23
2022-07-04 03:17:00,,0825.6,4.99,0.00,29.4,28.5,00.0,38.1,31.4,24.6,0000.0,0005.73,0001.76,0001.24
2022-07-04 03:18:00,,0825.6,5.00,0.00,29.5,28.5,00.0,38.1,31.5,24.5,0000.0,0004.47,0001.79,0001.24
2022-07-04 03:19:00,,0825.5,5.01,0.00,29.5,28.6,00.0,38.2,31.5,24.6,0000.0,0004.30,0001.82,0001.26
2022-07-04 03:20:00,,0825.6,5.00,0.00,29.5,28.7,00.0,38.2,31.6,24.5,0000.0,0004.26,0001.81,0001.26
2022-07-04 03:21:00,,0825.6,4.98,0.00,29.6,28.7,00.0,38.2,31.6,24.5,0000.0,0004.42,0001.86,0001.27
2022-07-04 03:22:00,,0825.6,4.99,0.00,29.6,28.1,00.0,38.2,31.5,24.5,0000.0,0004.27,0001.82,0001.28
2022-07-04 03:23:00,,0825.5,5.00,0.00,29.5,27.5,00.0,38.2,31.3,24.7,0000.0,0004.08,0001.77,0001.29
2022-07-04 03:24:00,,0825.6,4.99,0.00,29.5,27.3,00.0,38.2,31.3,24.9,0000.0,0004.11,0001.79,0001.30
2022-07-04 03:25:00,,0825.6,5.01,0.00,29.4,27.3,00.0,38.2,31.2,25.1,0000.0,0004.22,0001.82,0001.32
2022-07-04 03:26:00,,0825.6,5.00,0.00,29.4,27.4,00.0,38.2,31.2,25.3,0000.0,0004.03,0001.83,0001.33
2022-07-04 03:27:00,,0825.5,4.99,0.00,29.4,27.6,00.0,38.2,31.2,25.4,0000.0,0003.79,0001.83,0001.33
2022-07-04 03:28:00,,0825.5,5.00,0.00,29.4,27.7,00.0,38.2,31.2,25.5,0000.0,0003.69,0001.83,0001.34
2022-07-04 03:29:00,,0825.5,5.01,0.00,29.4,27.9,00.0,38.1,31.3,25.6,0000.0,0003.71,0001.84,0001.34
2022-07-04 03:30:00,,0825.4,4.99,0.00,29.4,28.0,00.0,38.2,31.3,25.6,0000.0,0004.06,0001.88,0001.35
2022-07-04 03:31:00,,0825.4,5.00,0.00,29.4,28.1,00.0,38.2,31.3,25.5,0000.0,0005.75,0001.92,0001.35
2022-07-04 03:32:00,,0825.4,5.00,0.00,29.4,28.2,00.0,38.2,31.4,25.5,0000.0,0005.95,0001.90,0001.36
2022-07-04 03:33:00,,0825.4,5.01,0.00,29.4,28.3,00.0,38.2,31.4,25.4,0000.0,0005.98,0001.91,0001.35
2022-07-04 03:34:00,,0825.4,5.01,0.00,29.5,28.4,00.0,38.2,31.4,25.8,0000.0,0005.93,0001.89,0001.34
2022-07-04 03:35:00,,0825.4,5.01,0.00,29.5,28.5,00.0,38.2,31.5,26.4,0000.0,0006.01,0001.89,0001.35
2022-07-04 03:36:00,,0825.4,5.01,0.00,29.5,28.5,00.0,38.3,31.5,26.8,0000.0,0006.09,0001.93,0001.36
2022-07-04 03:37:00,,0825.4,4.99,0.00,29.6,28.6,00.0,38.3,31.5,26.9,0000.0,0006.10,0001.96,0001.37
2022-07-04 03:38:00,,0825.4,5.00,0.00,29.6,28.7,00.0,38.3,31.6,27.0,0000.0,0005.55,0001.99,0001.39
2022-07-04 03:39:00,,0825.3,5.00,0.00,29.6,28.7,00.0,38.3,31.6,27.2,0000.0,0006.25,0002.00,0001.41
2022-07-04 03:40:00,,0825.4,5.00,0.00,29.6,28.6,00.0,38.3,31.6,27.4,0000.0,0007.30,0002.04,0001.44
2022-07-04 03:41:00,,0825.3,5.00,0.00,29.6,27.9,00.0,38.3,31.5,27.6,0000.0,0007.56,0002.01,0001.47
2022-07-04 03:42:00,,0825.3,5.00,0.00,29.6,27.4,00.0,38.2,31.4,27.8,0000.0,0005.92,0002.03,0001.51
2022-07-04 03:43:00,,0825.3,5.00,0.00,29.5,27.4,00.0,38.2,31.3,28.2,0000.0,0005.78,0002.09,0001.55
2022-07-04 03:44:00,,0825.3,5.00,0.00,29.5,27.4,00.0,38.2,31.2,28.6,0000.0,0005.83,0002.12,0001.59
2022-07-04 03:45:00,,0825.3,4.99,0.00,29.4,27.5,00.0,38.2,31.2,28.5,0000.0,0006.15,0002.25,0001.63
2022-07-04 03:46:00,,0825.3,5.00,0.00,29.4,27.6,00.0,38.2,31.3,28.5,0000.0,0006.14,0002.27,0001.66
2022-07-04 03:47:00,,0825.3,5.01,0.00,29.4,27.8,00.0,38.2,31.3,28.6,0000.0,0006.17,0002.29,0001.70
2022-07-04 03:48:00,,0825.4,5.01,0.00,29.4,27.9,00.0,38.2,31.3,28.6,0000.0,0006.22,0002.29,0001.73
2022-07-04 03:49:00,,0825.4,5.00,0.00,29.4,28.0,00.0,38.2,31.3,28.8,0000.0,0007.02,0002.35,0001.78
2022-07-04 03:50:00,,0825.4,5.01,0.00,29.4,28.1,00.0,38.2,31.4,28.7,0000.0,0006.72,0002.42,0001.84
2022-07-04 03:51:00,,0825.4,5.00,0.00,29.5,28.2,00.0,38.2,31.4,28.7,0000.0,0005.67,0002.49,0001.89
2022-07-04 03:52:00,,0825.3,4.99,0.00,29.5,28.3,00.0,38.2,31.4,28.8,0000.0,0005.37,0002.61,0001.97
2022-07-04 03:53:00,,0825.3,5.00,0.00,29.5,28.4,00.0,38.3,31.5,28.6,0000.0,0006.66,0002.73,0002.04
2022-07-04 03:54:00,,0825.4,5.01,0.00,29.5,28.5,00.0,38.3,31.5,28.6,0000.0,0007.12,0002.86,0002.12
2022-07-04 03:55:00,,0825.4,5.00,0.00,29.6,28.5,00.0,38.3,31.5,28.5,0000.0,0008.04,0002.96,0002.19
2022-07-04 03:56:00,,0825.4,4.99,0.00,29.6,28.6,00.0,38.3,31.5,28.6,0000.0,0008.65,0002.99,0002.26
2022-07-04 03:57:00,,0825.4,5.00,0.00,29.6,28.6,00.0,38.3,31.6,28.6,0000.0,0008.96,0003.08,0002.31
2022-07-04 03:58:00,,0825.4,4.99,0.00,29.6,28.3,00.0,38.3,31.5,28.6,0000.0,0009.09,0003.16,0002.36
2022-07-04 03:59:00,,0825.4,5.01,0.00,29.6,27.6,00.0,38.3,31.4,28.6,0000.0,0009.32,0003.22,0002.41
